Terminal Aerodrome Forecast
Issued by NWS Riverton, WY

Home | Current Version | Previous Version | Text Only | Print | Product List | Glossary On
Versions: 1 2 3 4 5 6 7 8 9 10 11 12 13 14 15 16
895
FTUS45 KRIW 061725
TAFRIW
TAF
KRIW 061725Z 0618/0718 VRB05KT P6SM SKC
     FM062100 05005KT P6SM SCT100 BKN150
     FM070300 05007KT P6SM SCT025 BKN040
     FM070600 05006KT P6SM VCSH OVC025
     FM071700 05006KT P6SM BKN040=

USA.gov is the U.S. government's official web portal to all federal, state and local government web resources and services.